RASSVET-3 9

Last updated on Sun Apr 12 2026 00:02:09 GMT+0000 (Coordinated Universal Time)

1 68368U 26061J 26101.48205139 .00104131 26989-5 32828-3 0 9993 2 68368 82.2958 87.4393 0023025 5.8979 354.2560 15.90744836 2982
UTC large
Height (km)
Speed (km/s)
/
Latitude / Longitude
Inclination (degrees)
Orbital Period (minutes)
Azimuth
Elevation
Range (km)
Doppler Factor

Next 0 passes for location: London (51.5072 / 0.1276)

Sorry there are no passes over London.
RASSVET-3 9